2019年9月10日 星期二

2019/07 - 2019/08 捐物徵信

2019/08/27item20190827 慶隆商務企業股份有限公司16780869慶隆商務企業股份有限公司國際交流8/29~9/1 CLBC 德惠貳參場地總計 22.4 hrs
(牌告價 3,000/hr)

2019/07-2019/08 捐款徵信

建立日期捐款徵信顯示名稱總金額收據編號指定用途
2019/7/1 上午 1:42:46yutinNT$1,000A20190701-000001jothon(線上繳款: g0v 大松認養人)
2019/7/1 上午 1:45:43張O麟NT$1,000A20190701-000002jothon(線上繳款: g0v 大松認養人)
2019/7/1 上午 1:47:10陳O嘉NT$600A20190701-000003jothon(線上繳款: g0v 大松認養人)
2019/7/1 上午 2:04:33李O阡NT$300A20190701-000004線上繳款: OCF行政基金 捐款專頁
2019/7/1 上午 2:11:10PENNYKENNT$300A20190701-000005線上繳款: OCF行政基金 捐款專頁
2019/7/1 上午 2:40:06danixNT$300A20190701-000006jothon(線上繳款: g0v 大松認養人)
2019/7/1 上午 2:40:39danixNT$300A20190701-000007線上繳款: OCF行政基金 捐款專頁
2019/7/1 上午 2:41:46阿德大大NT$300A20190701-000008線上繳款: OCF行政基金 捐款專頁
2019/7/1 上午 2:42:20阿德大大NT$300A20190701-000009jothon(線上繳款: g0v 大松認養人)
2019/7/2台灣大車隊NT$75,000COSCUP190702001COSCUP 白銀級贊助
2019/7/2 上午 1:41:00林O全NT$600A20190702-000001jothon(線上繳款: g0v 大松認養人)
2019/7/2 上午 1:45:23林O慈NT$300A20190702-000002線上繳款: OCF行政基金 捐款專頁
2019/7/2 上午 1:57:35林O翰NT$300A20190702-000003線上繳款: OCF行政基金 捐款專頁
2019/7/2 上午 1:57:59蕭O順NT$300A20190702-000004線上繳款: OCF行政基金 捐款專頁
2019/7/2 上午 1:58:32游O永NT$300A20190702-000005線上繳款: OCF行政基金 捐款專頁
2019/7/2 上午 2:13:33$4NT$300A20190702-000006線上繳款: OCF行政基金 捐款專頁
2019/7/2 上午 2:25:10cliffluNT$300A20190702-000007線上繳款: OCF行政基金 捐款專頁
2019/7/2 上午 2:25:43TonyQNT$1,000A20190702-000008線上繳款: OCF行政基金 捐款專頁
2019/7/2 上午 2:26:15LeeNT$500A20190702-000009線上繳款: OCF行政基金 捐款專頁
2019/7/2 上午 2:27:21艾德格NT$500A20190702-000010線上繳款: OCF行政基金 捐款專頁
2019/7/2 上午 2:27:55許O宇NT$300A20190702-000011線上繳款: OCF行政基金 捐款專頁
2019/7/2 上午 2:28:58蔡O兼NT$300A20190702-000012線上繳款: OCF行政基金 捐款專頁
2019/7/2 上午 2:29:31李O熙NT$300A20190702-000013線上繳款: OCF行政基金 捐款專頁
2019/7/2 上午 2:30:04王O誌NT$300A20190702-000014線上繳款: OCF行政基金 捐款專頁
2019/7/2 下午 12:57:22鐘O文NT$300A20190702-000015線上繳款: OCF行政基金 捐款專頁
2019/7/2 下午 2:17:59魏O聖NT$300A20190702-000016線上繳款: OCF行政基金 捐款專頁
2019/7/2 下午 3:59:52鄭O安NT$300A20190702-000017線上繳款: OCF行政基金 捐款專頁
2019/7/2 下午 6:05:13鄭O彥NT$300A20190702-000018線上繳款: OCF行政基金 捐款專頁
2019/7/2 下午 6:46:44余尚儒NT$300A20190702-000019線上繳款: OCF行政基金 捐款專頁
2019/7/2 下午 8:42:38張O評NT$300A20190702-000020線上繳款: OCF行政基金 捐款專頁
2019/7/2 下午 9:16:16蕭O威NT$300A20190702-000021線上繳款: OCF行政基金 捐款專頁
2019/7/2 下午 9:27:13台灣人公民意識促進會NT$300A20190702-000022線上繳款: OCF行政基金 捐款專頁
2019/7/2 下午 11:38:04陳O良NT$300A20190702-000023線上繳款: OCF行政基金 捐款專頁
2019/7/3 上午 1:19:57陳O志NT$300A20190703-000001線上繳款: OCF行政基金 捐款專頁
2019/7/3 上午 1:41:36Lex ChienNT$1,500A20190703-000002線上繳款: OCF行政基金 捐款專頁
2019/7/3 上午 1:41:47Yao WeiNT$300A20190703-000003線上繳款: OCF行政基金 捐款專頁
2019/7/3 上午 1:46:15凍仁翔NT$300A20190703-000004線上繳款: OCF行政基金 捐款專頁
2019/7/3 上午 1:52:46PingNote (PN Wu, 小平)NT$300A20190703-000005線上繳款: OCF行政基金 捐款專頁
2019/7/3 上午 1:56:14陳O如NT$300A20190703-000006線上繳款: OCF行政基金 捐款專頁
2019/7/3 上午 1:56:47梁O維NT$300A20190703-000007線上繳款: OCF行政基金 捐款專頁
2019/7/3 上午 2:00:14陳O君NT$300A20190703-000008jothon(線上繳款: g0v 大松認養人)
2019/7/3 上午 2:20:42駱O真NT$300A20190703-000009線上繳款: OCF行政基金 捐款專頁
2019/7/3 上午 2:21:15卓O成NT$300A20190703-000010線上繳款: OCF行政基金 捐款專頁
2019/7/3 上午 2:21:46陳O生NT$300A20190703-000011線上繳款: OCF行政基金 捐款專頁
2019/7/3 上午 2:31:18Ronny WangNT$1,024A20190703-000012jothon(線上繳款: g0v 大松認養人)
2019/7/3 上午 2:31:50Ronny WangNT$300A20190703-000013線上繳款: OCF行政基金 捐款專頁
2019/7/3 上午 9:06:40詠康藥局NT$300A20190703-000014線上繳款: OCF行政基金 捐款專頁
2019/7/3 上午 9:44:57林O青NT$300A20190703-000015線上繳款: OCF行政基金 捐款專頁
2019/7/4 上午 1:41:00廖O傑NT$600A20190704-000001jothon(線上繳款: g0v 大松認養人)
2019/7/4 上午 1:46:26廖O傑NT$300A20190704-000002線上繳款: OCF行政基金 捐款專頁
2019/7/4 上午 1:53:53王O仁NT$300A20190704-000003線上繳款: OCF行政基金 捐款專頁
2019/7/4 上午 1:56:34黃O中NT$300A20190704-000004線上繳款: OCF行政基金 捐款專頁
2019/7/4 上午 1:58:30JimmyNT$300A20190704-000005jothon(線上繳款: g0v 大松認養人)
2019/7/4 上午 2:05:38廉O成NT$1,000A20190704-000006線上繳款: 國際交流計劃 捐款專頁
2019/7/4 上午 2:18:59廖O傑NT$300A20190704-000007線上繳款: OCF行政基金 捐款專頁
2019/7/4 上午 2:19:33Bear SuNT$300A20190704-000008線上繳款: OCF行政基金 捐款專頁
2019/7/4 上午 2:21:09朱O任NT$300A20190704-000009線上繳款: OCF行政基金 捐款專頁
2019/7/4 下午 9:46:27古O忠NT$300A20190704-000010線上繳款: OCF行政基金 捐款專頁
2019/7/517 直播NT$325,000COSCUP190705001COSCUP 鈦金級贊助
2019/7/5 上午 1:43:18曾孝聞NT$300A20190705-000001線上繳款: OCF行政基金 捐款專頁
2019/7/5 上午 1:47:45智新資通股份有限公司NT$1,000A20190705-000002線上繳款: OCF行政基金 捐款專頁
2019/7/5 上午 1:52:41SeachaosNT$300A20190705-000003線上繳款: OCF行政基金 捐款專頁
2019/7/5 上午 2:11:58吳O甫NT$300A20190705-000004jothon(線上繳款: g0v 大松認養人)
2019/7/5 上午 2:22:25鄭O一NT$300A20190705-000005線上繳款: OCF行政基金 捐款專頁
2019/7/5 上午 2:22:58DavyNT$300A20190705-000006線上繳款: OCF行政基金 捐款專頁
2019/7/5 上午 2:23:30張O沛NT$300A20190705-000007線上繳款: OCF行政基金 捐款專頁
2019/7/5 上午 5:54:52劉O憲NT$300A20190705-000008線上繳款: OCF行政基金 捐款專頁
2019/7/6 上午 2:01:36趙ONT$600A20190706-000001jothon(線上繳款: g0v 大松認養人)
2019/7/6 上午 2:03:53張O輔NT$500A20190706-000002jothon(線上繳款: g0v 大松認養人)
2019/7/6 上午 2:13:29劉O宏NT$300A20190706-000003線上繳款: OCF行政基金 捐款專頁
2019/7/6 上午 2:18:59粘O閎NT$300A20190706-000004線上繳款: OCF行政基金 捐款專頁
2019/7/6 上午 2:19:31BlueT - Matthew Lien - 練喆明NT$300A20190706-000005線上繳款: OCF行政基金 捐款專頁
2019/7/6 上午 2:20:03auNT$300A20190706-000006線上繳款: OCF行政基金 捐款專頁
2019/7/6 上午 2:20:36明安資訊服務有限公司NT$300A20190706-000007線上繳款: OCF行政基金 捐款專頁
2019/7/6 下午 5:21:03高O涵NT$300A20190706-000008線上繳款: OCF行政基金 捐款專頁
2019/7/6 下午 5:40:27Godspeed YenNT$300A20190706-000009線上繳款: OCF行政基金 捐款專頁
2019/7/6 下午 6:30:25顏O良NT$300A20190706-000010線上繳款: OCF行政基金 捐款專頁
2019/7/7 上午 1:56:24張O宏NT$300A20190707-000001jothon(線上繳款: g0v 大松認養人)
2019/7/7 上午 1:56:35楊O鵬NT$1,000A20190707-000002jothon(線上繳款: g0v 大松認養人)
2019/7/7 上午 2:16:42衷O焜NT$300A20190707-000003線上繳款: OCF行政基金 捐款專頁
2019/7/7 上午 9:58:11游O宏NT$300A20190707-000004線上繳款: OCF行政基金 捐款專頁
2019/7/7 上午 9:58:19賴O明NT$300A20190707-000005線上繳款: OCF行政基金 捐款專頁
2019/7/8Umbo Computer VisionNT$158,000COSCUP190708001COSCUP 黃金級贊助
2019/7/8 上午 1:43:59林O民NT$1,000A20190708-000001線上繳款: OCF行政基金 捐款專頁
2019/7/8 上午 1:48:27匿名NT$300A20190708-000002線上繳款: OCF行政基金 捐款專頁
2019/7/8 上午 2:05:17蔡O孔NT$300A20190708-000003線上繳款: OCF行政基金 捐款專頁
2019/7/8 上午 2:08:00陳O佑NT$300A20190708-000004線上繳款: OCF行政基金 捐款專頁
2019/7/8 下午 4:37:39tsaiszutingNT$300A20190708-000005jothon(線上繳款: g0v 大松認養人)
2019/7/9 上午 1:54:09李O瑋NT$777A20190709-000001線上繳款: OCF行政基金 捐款專頁
2019/7/9 上午 1:55:31CanNT$1,000A20190709-000002線上繳款: OCF行政基金 捐款專頁
2019/7/9 上午 2:07:29陳O文NT$1,000A20190709-000003線上繳款: OCF行政基金 捐款專頁
2019/7/9 上午 2:16:59陳O屹NT$300A20190709-000004線上繳款: OCF行政基金 捐款專頁
2019/7/10 上午 1:43:11鄭O文NT$600A20190710-000001jothon(線上繳款: g0v 大松認養人)
2019/7/10 上午 2:38:40YiJinNT$300A20190710-000002線上繳款: OCF行政基金 捐款專頁
2019/7/10 上午 2:38:49劉O武NT$300A20190710-000003線上繳款: OCF行政基金 捐款專頁
2019/7/10 上午 3:36:12黃O翔NT$300A20190710-000004線上繳款: OCF行政基金 捐款專頁
2019/7/10 上午 3:36:48鄭O元NT$300A20190710-000005線上繳款: OCF行政基金 捐款專頁
2019/7/11匿名NT$120,000OCNHFA2019071101手動:OCNHFA
2019/7/11 上午 1:44:12羅永欣NT$1,000A20190711-000001線上繳款: OCF行政基金 捐款專頁
2019/7/11 上午 2:16:59梁O鈴NT$300A20190711-000002線上繳款: OCF行政基金 捐款專頁
2019/7/11 上午 2:32:26張O彥NT$300A20190711-000003線上繳款: OCF行政基金 捐款專頁
2019/7/11 上午 2:36:21林O荃NT$300A20190711-000004線上繳款: OCF行政基金 捐款專頁
2019/7/11 上午 2:44:59YuerNT$300A20190711-000005線上繳款: OCF行政基金 捐款專頁
2019/7/11 上午 3:01:10呂ONT$300A20190711-000006線上繳款: OCF行政基金 捐款專頁
2019/7/11 下午 8:23:54匿名NT$1,337A20190711-000007線上繳款: OCF行政基金 捐款專頁
2019/7/12 上午 1:40:12吳O嘉NT$300A20190712-000001線上繳款: OCF行政基金 捐款專頁
2019/7/12 上午 1:46:54謝O昌NT$300A20190712-000002線上繳款: OCF行政基金 捐款專頁
2019/7/12 上午 2:12:45文O能NT$300A20190712-000003線上繳款: OCF行政基金 捐款專頁
2019/7/12 上午 2:14:07A.ShizukuNT$300A20190712-000004線上繳款: OCF行政基金 捐款專頁
2019/7/12 上午 2:35:41楊O毅NT$300A20190712-000005線上繳款: OCF行政基金 捐款專頁
2019/7/13 上午 1:43:48蔡O錡NT$300A20190713-000001線上繳款: OCF行政基金 捐款專頁
2019/7/14 上午 1:50:00張O亞NT$1,000A20190714-000001線上繳款: OCF行政基金 捐款專頁
2019/7/14 上午 2:07:46YiJinNT$300A20190714-000002jothon(線上繳款: g0v 大松認養人)
2019/7/15華銘工業有限公司NT$4,203admin19071501手動:行政中心捐款
2019/7/15匿名NT$35,000SITCONCAMP201901SITCON
2019/7/15 上午 1:47:41陳O仁NT$500A20190715-000001線上繳款: OCF行政基金 捐款專頁
2019/7/15 上午 1:49:39cras4202twNT$300A20190715-000002線上繳款: OCF行政基金 捐款專頁
2019/7/15 上午 2:20:47吳O宸NT$300A20190715-000003線上繳款: OCF行政基金 捐款專頁
2019/07/16財團法人聯發科技教育基金會NT$200,000G2019071601手動:jothin
2019/7/16 上午 1:51:22張O麟NT$300A20190716-000001線上繳款: OCF行政基金 捐款專頁
2019/7/16 上午 1:51:32開源愛好者NT$300A20190716-000002線上繳款: OCF行政基金 捐款專頁
2019/7/16 上午 1:59:01林O宏NT$300A20190716-000003jothon(線上繳款: g0v 大松認養人)
2019/7/16 上午 2:03:10蕭O亨NT$600A20190716-000004線上繳款: OCF行政基金 捐款專頁
2019/7/16 上午 2:06:30黃O凱NT$300A20190716-000005線上繳款: OCF行政基金 捐款專頁
2019/7/16 上午 2:16:35黃O豪NT$300A20190716-000006線上繳款: OCF行政基金 捐款專頁
2019/7/16 上午 2:20:58蔡O欽NT$300A20190716-000007線上繳款: OCF行政基金 捐款專頁
2019/7/17財團法人台灣網路資訊中心NT$45,000COSCUP190717001COSCUP 青銅級贊助
2019/7/17 上午 1:48:58李O迪NT$300A20190717-000001線上繳款: OCF行政基金 捐款專頁
2019/7/17 上午 2:03:32孫O萍NT$300A20190717-000002線上繳款: OCF行政基金 捐款專頁
2019/7/18 上午 1:42:18廖O宴NT$300A20190718-000001線上繳款: OCF行政基金 捐款專頁
2019/7/18 上午 1:46:08李O澄NT$300A20190718-000002線上繳款: OCF行政基金 捐款專頁
2019/7/18 上午 1:50:50龔O富NT$300A20190718-000003線上繳款: OCF行政基金 捐款專頁
2019/7/18 上午 1:52:55洪O源NT$500A20190718-000004線上繳款: OCF行政基金 捐款專頁
2019/7/18 上午 1:59:56黃O霖NT$300A20190718-000005線上繳款: OCF行政基金 捐款專頁
2019/7/19 上午 2:03:11王儀琤NT$300A20190719-000001線上繳款: OCF行政基金 捐款專頁
2019/7/19 上午 2:20:11徐O恩NT$300A20190719-000002線上繳款: OCF行政基金 捐款專頁
2019/7/19 上午 2:24:00John DoeNT$600A20190719-000003jothon(線上繳款: g0v 大松認養人)
2019/7/19 下午 2:43:00kcwuNT$15,000M20190719-000001Benevity: 行政中心,國際交流,系統軟體走向國際,g0v大松
2019/7/19 下午 2:48:00Benevity Inc.NT$28,453M20190719-000002Benevity: Openlab、行政中心、g0v 大松
2019/7/20 上午 1:41:22Ryan HoNT$300A20190720-000001線上繳款: OCF行政基金 捐款專頁
2019/7/20 上午 1:58:44薛良斌NT$300A20190720-000002線上繳款: OCF行政基金 捐款專頁
2019/7/20 上午 2:22:57Crys JhengNT$300A20190720-000003線上繳款: OCF行政基金 捐款專頁
2019/7/21 上午 7:06:59羅O遠NT$300A20190721-000001線上繳款: OCF行政基金 捐款專頁
2019/7/21 上午 7:20:11許O文NT$300A20190721-000002線上繳款: OCF行政基金 捐款專頁
2019/7/21 上午 7:24:59阿原NT$300A20190721-000003線上繳款: OCF行政基金 捐款專頁
2019/7/21 上午 7:37:44小蟹NT$300A20190721-000004線上繳款: OCF行政基金 捐款專頁
2019/7/21 上午 7:44:52isaclNT$500A20190721-000005線上繳款: OCF行政基金 捐款專頁
2019/7/21 上午 7:45:25葉O欣NT$300A20190721-000006線上繳款: OCF行政基金 捐款專頁
2019/7/21 上午 7:57:25ddioNT$500A20190721-000007線上繳款: OCF行政基金 捐款專頁
2019/7/22趨勢科技NT$150,000COSCUP190723002COSCUP 黃金級贊助
2019/7/22 上午 2:25:18畢O泉NT$300A20190722-000001線上繳款: OCF行政基金 捐款專頁
2019/7/22 上午 2:27:32梁翔勝NT$600A20190722-000002jothon(線上繳款: g0v 大松認養人)
2019/7/23維新網股份有限公司BlueX TradeNT$150,000COSCUP190723001COSCUP 黃金級贊助
2019/7/23 上午 1:42:43曾O助NT$300A20190723-000001線上繳款: OCF行政基金 捐款專頁
2019/7/23 上午 1:42:48張O翔NT$300A20190723-000002線上繳款: OCF行政基金 捐款專頁
2019/7/23 上午 1:50:20林O全NT$300A20190723-000003線上繳款: OCF行政基金 捐款專頁
2019/7/23 上午 2:31:15陳O凱NT$300A20190723-000004線上繳款: OCF行政基金 捐款專頁
2019/7/24 上午 1:42:18郭O穎NT$300A20190724-000001線上繳款: OCF行政基金 捐款專頁
2019/7/24 上午 1:43:33朝O企業有限公司NT$600A20190724-000002jothon(線上繳款: g0v 大松認養人)
2019/7/24 上午 2:20:49蘇O傑NT$300A20190724-000003線上繳款: OCF行政基金 捐款專頁
2019/7/24 上午 2:21:21高O格NT$300A20190724-000004線上繳款: OCF行政基金 捐款專頁
2019/7/25 上午 1:52:23ddioNT$500A20190725-000001jothon(線上繳款: g0v 大松認養人)
2019/7/27 上午 1:42:34曾O聞NT$300A20190727-000001線上繳款: OCF行政基金 捐款專頁
2019/7/27 上午 2:24:43MarconiNT$300A20190727-000002線上繳款: OCF行政基金 捐款專頁
2019/7/28 上午 1:42:08蔡O翰NT$300A20190728-000001線上繳款: OCF行政基金 捐款專頁
2019/7/28 上午 1:45:03王O民NT$300A20190728-000002線上繳款: OCF行政基金 捐款專頁
2019/7/28 上午 1:45:08許峻偉NT$300A20190728-000003線上繳款: OCF行政基金 捐款專頁
2019/7/28 上午 2:02:35江翰源NT$300A20190728-000004jothon(線上繳款: g0v 大松認養人)
2019/7/28 上午 2:08:17鄧O波NT$300A20190728-000005線上繳款: OCF行政基金 捐款專頁
2019/7/28 上午 2:20:59洪O吟NT$300A20190728-000006線上繳款: OCF行政基金 捐款專頁
2019/7/29何明諠NT$3,000C19072901手動:國際交流(CSCS)
2019/7/29 上午 1:40:49陳O倬NT$300A20190729-000001線上繳款: OCF行政基金 捐款專頁
2019/7/29 上午 1:43:45吳O逸NT$300A20190729-000002線上繳款: OCF行政基金 捐款專頁
2019/7/29 上午 2:18:18SZ LinNT$888A20190729-000003線上繳款: OCF行政基金 捐款專頁
2019/7/29 上午 2:28:31Reiny SongNT$500A20190729-000004線上繳款: OCF行政基金 捐款專頁
2019/7/29 上午 2:50:51李O華NT$300A20190729-000005線上繳款: OCF行政基金 捐款專頁
2019/7/29 上午 2:51:16洪O展NT$300A20190729-000006線上繳款: OCF行政基金 捐款專頁
2019/7/29 上午 2:57:30李O緯NT$300A20190729-000007線上繳款: OCF行政基金 捐款專頁
2019/7/29 上午 2:59:06李O龍NT$300A20190729-000008線上繳款: OCF行政基金 捐款專頁
2019/7/29 上午 2:59:39LIN KANG SZENT$300A20190729-000009線上繳款: OCF行政基金 捐款專頁
2019/7/29 上午 3:02:55ihowerNT$301A20190729-000010線上繳款: OCF行政基金 捐款專頁
2019/7/30 上午 1:42:10陳O聖NT$300A20190730-000001線上繳款: OCF行政基金 捐款專頁
2019/7/30 上午 1:42:16呂O林NT$1,000A20190730-000002jothon(線上繳款: g0v 大松認養人)
2019/7/30 上午 1:42:36林O玉NT$300A20190730-000003線上繳款: OCF行政基金 捐款專頁
2019/7/30 上午 2:09:06林O彥NT$1,000A20190730-000004線上繳款: OCF行政基金 捐款專頁
2019/7/30 上午 2:24:22陳O志NT$300A20190730-000005線上繳款: OCF行政基金 捐款專頁
2019/7/30 上午 2:25:46陳O瑩NT$300A20190730-000006線上繳款: OCF行政基金 捐款專頁
2019/7/30 上午 2:31:50林O俊NT$300A20190730-000007線上繳款: OCF行政基金 捐款專頁
2019/7/31電週文化事業股份有限公司NT$150,000COSCUP190731001COSCUP 黃金級贊助
2019/7/31 上午 1:43:02陳三一NT$300A20190731-000001線上繳款: OCF行政基金 捐款專頁
2019/7/31 上午 1:44:20曾ONT$300A20190731-000002線上繳款: OCF行政基金 捐款專頁
2019/7/31 上午 1:57:20黃O瑜NT$300A20190731-000003線上繳款: OCF行政基金 捐款專頁
2019/7/31 上午 2:05:11林O錕NT$300A20190731-000004線上繳款: OCF行政基金 捐款專頁
2019/8/1 上午 1:45:49張O麟NT$1,000A20190801-000001jothon(線上繳款: g0v 大松認養人)
2019/8/1 上午 1:46:57陳O嘉NT$600A20190801-000002jothon(線上繳款: g0v 大松認養人)
2019/8/1 上午 2:02:39李O阡NT$300A20190801-000003線上繳款: OCF行政基金 捐款專頁
2019/8/1 上午 2:07:24PENNYKENNT$300A20190801-000004線上繳款: OCF行政基金 捐款專頁
2019/8/1 上午 2:41:31danixNT$300A20190801-000005jothon(線上繳款: g0v 大松認養人)
2019/8/1 上午 2:42:04danixNT$300A20190801-000006線上繳款: OCF行政基金 捐款專頁
2019/8/1 上午 2:43:12阿德大大NT$300A20190801-000007線上繳款: OCF行政基金 捐款專頁
2019/8/1 上午 2:43:47阿德大大NT$300A20190801-000008jothon(線上繳款: g0v 大松認養人)
2019/8/1 下午 6:12:00匿名捐款NT$1,220M20190801-000001jothon(線上繳款: g0v 大松認養人)
2019/8/2 上午 1:40:57林O全NT$600A20190802-000001jothon(線上繳款: g0v 大松認養人)
2019/8/2 上午 1:45:06林O慈NT$300A20190802-000002線上繳款: OCF行政基金 捐款專頁
2019/8/2 上午 1:57:48蕭O順NT$300A20190802-000003線上繳款: OCF行政基金 捐款專頁
2019/8/2 上午 1:58:22游O永NT$300A20190802-000004線上繳款: OCF行政基金 捐款專頁
2019/8/2 上午 2:12:47$4NT$300A20190802-000005線上繳款: OCF行政基金 捐款專頁
2019/8/2 上午 2:19:53鐘O文NT$300A20190802-000006線上繳款: OCF行政基金 捐款專頁
2019/8/2 上午 2:20:21魏O聖NT$300A20190802-000007線上繳款: OCF行政基金 捐款專頁
2019/8/2 上午 2:20:57鄭O安NT$300A20190802-000008線上繳款: OCF行政基金 捐款專頁
2019/8/2 上午 2:21:43鄭O彥NT$300A20190802-000009線上繳款: OCF行政基金 捐款專頁
2019/8/2 上午 2:21:54余尚儒NT$300A20190802-000010線上繳款: OCF行政基金 捐款專頁
2019/8/2 上午 2:22:07張O評NT$300A20190802-000011線上繳款: OCF行政基金 捐款專頁
2019/8/2 上午 2:22:14蕭O威NT$300A20190802-000012線上繳款: OCF行政基金 捐款專頁
2019/8/2 上午 2:22:20台灣人公民意識促進會NT$300A20190802-000013線上繳款: OCF行政基金 捐款專頁
2019/8/2 上午 2:22:51陳O良NT$300A20190802-000014線上繳款: OCF行政基金 捐款專頁
2019/8/2 上午 2:28:03cliffluNT$300A20190802-000015線上繳款: OCF行政基金 捐款專頁
2019/8/2 上午 2:28:36TonyQNT$1,000A20190802-000016線上繳款: OCF行政基金 捐款專頁
2019/8/2 上午 2:29:08LeeNT$500A20190802-000017線上繳款: OCF行政基金 捐款專頁
2019/8/2 上午 2:30:13艾德格NT$500A20190802-000018線上繳款: OCF行政基金 捐款專頁
2019/8/2 上午 2:30:47許O宇NT$300A20190802-000019線上繳款: OCF行政基金 捐款專頁
2019/8/2 上午 2:31:50蔡O兼NT$300A20190802-000020線上繳款: OCF行政基金 捐款專頁
2019/8/2 上午 2:32:22李O熙NT$300A20190802-000021線上繳款: OCF行政基金 捐款專頁
2019/8/2 上午 2:32:55王O誌NT$300A20190802-000022線上繳款: OCF行政基金 捐款專頁
2019/8/2 下午 8:42:21賴O文NT$1,000A20190802-000023jothon(線上繳款: g0v 大松認養人)
2019/8/2 下午 10:51:56魏O聖NT$300A20190802-000024jothon(線上繳款: g0v 大松認養人)
2019/8/3 上午 1:42:19Yao WeiNT$300A20190803-000001線上繳款: OCF行政基金 捐款專頁
2019/8/3 上午 1:46:56凍仁翔NT$300A20190803-000002線上繳款: OCF行政基金 捐款專頁
2019/8/3 上午 1:52:37PingNote (PN Wu, 小平)NT$300A20190803-000003線上繳款: OCF行政基金 捐款專頁
2019/8/3 上午 1:55:51陳O如NT$300A20190803-000004線上繳款: OCF行政基金 捐款專頁
2019/8/3 上午 1:56:19梁O維NT$300A20190803-000005線上繳款: OCF行政基金 捐款專頁
2019/8/3 上午 1:59:36陳O君NT$300A20190803-000006jothon(線上繳款: g0v 大松認養人)
2019/8/3 上午 2:16:41陳O志NT$300A20190803-000007線上繳款: OCF行政基金 捐款專頁
2019/8/3 上午 2:17:19詠康藥局NT$300A20190803-000008線上繳款: OCF行政基金 捐款專頁
2019/8/3 上午 2:17:25林O青NT$300A20190803-000009線上繳款: OCF行政基金 捐款專頁
2019/8/3 上午 2:21:17駱O真NT$300A20190803-000010線上繳款: OCF行政基金 捐款專頁
2019/8/3 上午 2:21:49卓O成NT$300A20190803-000011線上繳款: OCF行政基金 捐款專頁
2019/8/3 上午 2:22:21陳O生NT$300A20190803-000012線上繳款: OCF行政基金 捐款專頁
2019/8/3 上午 2:31:52Ronny WangNT$1,024A20190803-000013jothon(線上繳款: g0v 大松認養人)
2019/8/3 上午 2:32:24Ronny WangNT$300A20190803-000014線上繳款: OCF行政基金 捐款專頁
2019/8/4 上午 1:41:26廖O傑NT$600A20190804-000001jothon(線上繳款: g0v 大松認養人)
2019/8/4 上午 1:46:21廖O傑NT$300A20190804-000002線上繳款: OCF行政基金 捐款專頁
2019/8/4 上午 1:53:25王O仁NT$300A20190804-000003線上繳款: OCF行政基金 捐款專頁
2019/8/4 上午 1:55:40黃O中NT$300A20190804-000004線上繳款: OCF行政基金 捐款專頁
2019/8/4 上午 2:04:14廉O成NT$1,000A20190804-000005線上繳款: 國際交流計劃 捐款專頁
2019/8/4 上午 2:16:36古O忠NT$300A20190804-000006線上繳款: OCF行政基金 捐款專頁
2019/8/4 上午 2:22:09廖O傑NT$300A20190804-000007線上繳款: OCF行政基金 捐款專頁
2019/8/4 上午 2:22:43Bear SuNT$300A20190804-000008線上繳款: OCF行政基金 捐款專頁
2019/8/4 上午 2:24:20朱O任NT$300A20190804-000009線上繳款: OCF行政基金 捐款專頁
2019/08/05南一書局企業股份有限公司NT$500jothon-2019080501手動:jothin
2019/8/5 上午 1:42:15曾孝聞NT$300A20190805-000001線上繳款: OCF行政基金 捐款專頁
2019/8/5 上午 1:45:32智新資通股份有限公司NT$1,000A20190805-000002線上繳款: OCF行政基金 捐款專頁
2019/8/5 上午 1:49:36SeachaosNT$300A20190805-000003線上繳款: OCF行政基金 捐款專頁
2019/8/5 上午 2:07:52吳O甫NT$300A20190805-000004jothon(線上繳款: g0v 大松認養人)
2019/8/5 上午 2:14:45劉O憲NT$300A20190805-000005線上繳款: OCF行政基金 捐款專頁
2019/8/5 上午 2:22:16鄭O一NT$300A20190805-000006線上繳款: OCF行政基金 捐款專頁
2019/8/5 上午 2:22:48DavyNT$300A20190805-000007線上繳款: OCF行政基金 捐款專頁
2019/8/5 上午 2:23:20張O沛NT$300A20190805-000008線上繳款: OCF行政基金 捐款專頁
2019/8/6 上午 2:00:51趙ONT$600A20190806-000001jothon(線上繳款: g0v 大松認養人)
2019/8/6 上午 2:02:38張O輔NT$500A20190806-000002jothon(線上繳款: g0v 大松認養人)
2019/8/6 上午 2:10:51劉O宏NT$300A20190806-000003線上繳款: OCF行政基金 捐款專頁
2019/8/6 上午 2:12:59高O涵NT$300A20190806-000004線上繳款: OCF行政基金 捐款專頁
2019/8/6 上午 2:13:01Godspeed YenNT$300A20190806-000005線上繳款: OCF行政基金 捐款專頁
2019/8/6 上午 2:13:07顏O良NT$300A20190806-000006線上繳款: OCF行政基金 捐款專頁
2019/8/6 上午 2:18:17粘O閎NT$300A20190806-000007線上繳款: OCF行政基金 捐款專頁
2019/8/6 上午 2:18:49BlueT - Matthew Lien - 練喆明NT$300A20190806-000008線上繳款: OCF行政基金 捐款專頁
2019/8/6 上午 2:19:22auNT$300A20190806-000009線上繳款: OCF行政基金 捐款專頁
2019/8/7 上午 1:42:36游O宏NT$300A20190807-000001線上繳款: OCF行政基金 捐款專頁
2019/8/7 上午 1:42:43賴O明NT$300A20190807-000002線上繳款: OCF行政基金 捐款專頁
2019/8/7 上午 1:57:21張O宏NT$300A20190807-000003jothon(線上繳款: g0v 大松認養人)
2019/8/7 上午 1:57:33楊O鵬NT$1,000A20190807-000004jothon(線上繳款: g0v 大松認養人)
2019/8/7 上午 2:19:00衷O焜NT$300A20190807-000005線上繳款: OCF行政基金 捐款專頁
2019/8/8 上午 1:43:32林O民NT$1,000A20190808-000001線上繳款: OCF行政基金 捐款專頁
2019/8/8 上午 2:02:23蔡O孔NT$300A20190808-000002線上繳款: OCF行政基金 捐款專頁
2019/8/8 上午 2:04:45陳O佑NT$300A20190808-000003線上繳款: OCF行政基金 捐款專頁
2019/8/8 上午 2:14:20tsaiszutingNT$300A20190808-000004jothon(線上繳款: g0v 大松認養人)
2019/8/9 上午 1:51:33李O瑋NT$777A20190809-000001線上繳款: OCF行政基金 捐款專頁
2019/8/9 上午 1:52:40CanNT$1,000A20190809-000002線上繳款: OCF行政基金 捐款專頁
2019/8/9 上午 2:03:36陳O文NT$1,000A20190809-000003線上繳款: OCF行政基金 捐款專頁
2019/8/9 上午 2:13:56陳O屹NT$300A20190809-000004線上繳款: OCF行政基金 捐款專頁
2019/8/9 下午 12:46:56蔡O家NT$1,000A20190809-000005線上繳款: OCF行政基金 捐款專頁
2019/8/9 下午 12:53:06蔡O菁NT$1,000A20190809-000006線上繳款: OCF行政基金 捐款專頁
2019/8/10 上午 1:43:22鄭O文NT$600A20190810-000001jothon(線上繳款: g0v 大松認養人)
2019/8/10 上午 2:43:46YiJinNT$300A20190810-000002線上繳款: OCF行政基金 捐款專頁
2019/8/10 上午 2:43:57劉O武NT$300A20190810-000003線上繳款: OCF行政基金 捐款專頁
2019/8/10 上午 3:47:19黃O翔NT$300A20190810-000004線上繳款: OCF行政基金 捐款專頁
2019/8/10 上午 3:47:51鄭O元NT$300A20190810-000005線上繳款: OCF行政基金 捐款專頁
2019/8/12 上午 7:00:18吳O嘉NT$300A20190812-000001線上繳款: OCF行政基金 捐款專頁
2019/8/12 上午 7:06:14謝O昌NT$300A20190812-000002線上繳款: OCF行政基金 捐款專頁
2019/8/12 上午 7:29:18文O能NT$300A20190812-000003線上繳款: OCF行政基金 捐款專頁
2019/8/12 上午 7:30:40A.ShizukuNT$300A20190812-000004線上繳款: OCF行政基金 捐款專頁
2019/8/12 上午 7:52:12楊O毅NT$300A20190812-000005線上繳款: OCF行政基金 捐款專頁
2019/8/12 下午 3:57:04羅永欣NT$1,000A20190812-000006線上繳款: OCF行政基金 捐款專頁
2019/8/12 下午 4:26:42梁O鈴NT$300A20190812-000007線上繳款: OCF行政基金 捐款專頁
2019/8/12 下午 4:40:09張O彥NT$300A20190812-000008線上繳款: OCF行政基金 捐款專頁
2019/8/12 下午 4:43:17林O荃NT$300A20190812-000009線上繳款: OCF行政基金 捐款專頁
2019/8/12 下午 4:52:12YuerNT$300A20190812-000010線上繳款: OCF行政基金 捐款專頁
2019/8/12 下午 5:11:52呂ONT$300A20190812-000011線上繳款: OCF行政基金 捐款專頁
2019/8/13 上午 1:43:28蔡O錡NT$300A20190813-000001線上繳款: OCF行政基金 捐款專頁
2019/8/14 上午 1:49:08張O亞NT$1,000A20190814-000001線上繳款: OCF行政基金 捐款專頁
2019/8/14 上午 2:03:42YiJinNT$300A20190814-000002jothon(線上繳款: g0v 大松認養人)
2019/8/15 上午 1:47:17陳O仁NT$500A20190815-000001線上繳款: OCF行政基金 捐款專頁
2019/8/15 上午 1:48:57cras4202twNT$300A20190815-000002線上繳款: OCF行政基金 捐款專頁
2019/8/15 上午 2:20:47吳O宸NT$300A20190815-000003線上繳款: OCF行政基金 捐款專頁
2019/8/15 下午 5:43:08匿名NT$1,337A20190815-000004線上繳款: OCF行政基金 捐款專頁
2019/8/16 上午 1:49:30張O麟NT$300A20190816-000001線上繳款: OCF行政基金 捐款專頁
2019/8/16 上午 1:49:41開源愛好者NT$300A20190816-000002線上繳款: OCF行政基金 捐款專頁
2019/8/16 上午 1:57:11林O宏NT$300A20190816-000003jothon(線上繳款: g0v 大松認養人)
2019/8/16 上午 2:01:03蕭O亨NT$600A20190816-000004線上繳款: OCF行政基金 捐款專頁
2019/8/16 上午 2:04:01黃O凱NT$300A20190816-000005線上繳款: OCF行政基金 捐款專頁
2019/8/16 上午 2:16:38黃O豪NT$300A20190816-000006線上繳款: OCF行政基金 捐款專頁
2019/8/16 上午 2:21:39蔡O欽NT$300A20190816-000007線上繳款: OCF行政基金 捐款專頁
2019/8/17 上午 1:49:19李O迪NT$300A20190817-000001線上繳款: OCF行政基金 捐款專頁
2019/8/17 上午 2:03:07孫O萍NT$300A20190817-000002線上繳款: OCF行政基金 捐款專頁
2019/8/18 上午 6:41:56廖O宴NT$300A20190818-000001線上繳款: OCF行政基金 捐款專頁
2019/8/18 上午 6:45:50李O澄NT$300A20190818-000002線上繳款: OCF行政基金 捐款專頁
2019/8/18 上午 6:51:01龔O富NT$300A20190818-000003線上繳款: OCF行政基金 捐款專頁
2019/8/18 上午 6:53:19洪O源NT$500A20190818-000004線上繳款: OCF行政基金 捐款專頁
2019/8/18 上午 7:01:18黃O霖NT$300A20190818-000005線上繳款: OCF行政基金 捐款專頁
2019/8/18 上午 11:45:13李O廷NT$300A20190818-000006線上繳款: Cloud Native Taiwan User Group 社群專戶
2019/8/19 上午 2:02:55王儀琤NT$300A20190819-000001線上繳款: OCF行政基金 捐款專頁
2019/8/19 上午 2:22:52徐O恩NT$300A20190819-000002線上繳款: OCF行政基金 捐款專頁
2019/8/19 上午 2:24:35John DoeNT$600A20190819-000003jothon(線上繳款: g0v 大松認養人)
2019/8/19 下午 3:00:03徐O睿NT$300A20190819-000004線上繳款: OCF行政基金 捐款專頁
2019/8/20 上午 1:42:08Ryan HoNT$300A20190820-000001線上繳款: OCF行政基金 捐款專頁
2019/8/20 上午 1:59:18薛良斌NT$300A20190820-000002線上繳款: OCF行政基金 捐款專頁
2019/8/20 上午 2:26:01Crys JhengNT$300A20190820-000003線上繳款: OCF行政基金 捐款專頁
2019/8/20 上午 11:36:22胖胖NT$300A20190820-000004線上繳款: OCF行政基金 捐款專頁
2019/8/21 上午 1:46:06羅O遠NT$300A20190821-000001線上繳款: OCF行政基金 捐款專頁
2019/8/21 上午 1:58:03許O文NT$300A20190821-000002線上繳款: OCF行政基金 捐款專頁
2019/8/21 上午 2:03:09阿原NT$300A20190821-000003線上繳款: OCF行政基金 捐款專頁
2019/8/21 上午 2:15:30小蟹NT$300A20190821-000004線上繳款: OCF行政基金 捐款專頁
2019/8/21 上午 2:23:38isaclNT$500A20190821-000005線上繳款: OCF行政基金 捐款專頁
2019/8/21 上午 2:24:11葉O欣NT$300A20190821-000006線上繳款: OCF行政基金 捐款專頁
2019/8/21 上午 2:33:37ddioNT$500A20190821-000007線上繳款: OCF行政基金 捐款專頁
2019/8/21 上午 10:05:05貓貓貓貓NT$1,000A20190821-000008線上繳款: OCF行政基金 捐款專頁
2019/8/21 下午 12:01:01硬兔NT$8,192A20190821-000009線上繳款: OCF行政基金 捐款專頁
2019/8/21 下午 1:05:11yocoNT$300A20190821-000010線上繳款: OCF行政基金 捐款專頁
2019/8/21 下午 5:50:17candy/荔枝NT$300A20190821-000011線上繳款: OCF行政基金 捐款專頁
2019/8/22 上午 2:28:41畢O泉NT$300A20190822-000001線上繳款: OCF行政基金 捐款專頁
2019/8/22 上午 2:32:42梁翔勝NT$600A20190822-000002jothon(線上繳款: g0v 大松認養人)
2019/8/23 上午 1:42:31曾O助NT$300A20190823-000001線上繳款: OCF行政基金 捐款專頁
2019/8/23 上午 1:42:37張O翔NT$300A20190823-000002線上繳款: OCF行政基金 捐款專頁
2019/8/23 上午 1:49:24林O全NT$300A20190823-000003線上繳款: OCF行政基金 捐款專頁
2019/8/23 上午 2:31:40陳O凱NT$300A20190823-000004線上繳款: OCF行政基金 捐款專頁
2019/8/24 上午 1:43:04朝O企業有限公司NT$600A20190824-000001jothon(線上繳款: g0v 大松認養人)
2019/8/24 上午 2:23:23高O格NT$300A20190824-000002線上繳款: OCF行政基金 捐款專頁
2019/8/25 上午 1:52:44ddioNT$500A20190825-000001jothon(線上繳款: g0v 大松認養人)
2019/8/26 下午 1:47:00kcwuNT$15,000M20190826-000001Benevity: 行政中心,國際交流,系統軟體走向國際,g0v大松
2019/8/26 下午 1:54:00Benevity Inc.NT$20,665M20190826-000002Benevity: Openlab、行政中心、g0v 大松
2019/8/27余O鎧NT$2,500COSCUP2019_SP01手動:COSCUP 2019個人贊助
2019/8/27黃O堯NT$2,500COSCUP2019_SP02手動:COSCUP 2019個人贊助
2019/8/27RicoNT$2,500COSCUP2019_SP03手動:COSCUP 2019個人贊助
2019/8/27廖O傑NT$5,000COSCUP2019_SP04手動:COSCUP 2019個人贊助
2019/8/27許O文NT$5,000COSCUP2019_SP05手動:COSCUP 2019個人贊助
2019/8/27蘇O冠NT$2,500COSCUP2019_SP06手動:COSCUP 2019個人贊助
2019/8/27林O逸NT$2,500COSCUP2019_SP07手動:COSCUP 2019個人贊助
2019/8/27黃O銘NT$2,500COSCUP2019_SP08手動:COSCUP 2019個人贊助
2019/8/27宋O珠NT$2,500COSCUP2019_SP09手動:COSCUP 2019個人贊助
2019/8/27蘇O文NT$2,500COSCUP2019_SP10手動:COSCUP 2019個人贊助
2019/8/27周O力NT$2,500COSCUP2019_SP11手動:COSCUP 2019個人贊助
2019/8/27郭O愉NT$2,500COSCUP2019_SP12手動:COSCUP 2019個人贊助
2019/8/27黃O鈞NT$5,000COSCUP2019_SP13手動:COSCUP 2019個人贊助
2019/8/27RuinlandNT$2,500COSCUP2019_SP14手動:COSCUP 2019個人贊助
2019/8/27王O賢NT$2,500COSCUP2019_SP15手動:COSCUP 2019個人贊助
2019/8/27鄭O鴻NT$5,000COSCUP2019_SP16手動:COSCUP 2019個人贊助
2019/8/27李O豪 (Abola Lee)NT$2,500COSCUP2019_SP17手動:COSCUP 2019個人贊助
2019/8/27何O亦NT$2,500COSCUP2019_SP18手動:COSCUP 2019個人贊助
2019/8/27JinyoNT$2,500COSCUP2019_SP19手動:COSCUP 2019個人贊助
2019/8/27卓O成NT$2,500COSCUP2019_SP20手動:COSCUP 2019個人贊助
2019/8/27呂O生NT$2,500COSCUP2019_SP21手動:COSCUP 2019個人贊助
2019/8/27SarsNT$2,500COSCUP2019_SP22手動:COSCUP 2019個人贊助
2019/8/27蔡O玠NT$2,500COSCUP2019_SP23手動:COSCUP 2019個人贊助
2019/8/27Atsushi EnomotoNT$2,500COSCUP2019_SP24手動:COSCUP 2019個人贊助
2019/8/27陳O中NT$5,000COSCUP2019_SP25手動:COSCUP 2019個人贊助
2019/8/27Alen ChenNT$2,500COSCUP2019_SP26手動:COSCUP 2019個人贊助
2019/8/27陳O文NT$2,500COSCUP2019_SP27手動:COSCUP 2019個人贊助
2019/8/27郭O聰NT$2,500COSCUP2019_SP28手動:COSCUP 2019個人贊助
2019/8/27周O修NT$2,500COSCUP2019_SP29手動:COSCUP 2019個人贊助
2019/8/27Henry LawNT$5,000COSCUP2019_SP30手動:COSCUP 2019個人贊助
2019/8/27楊O安NT$2,500COSCUP2019_SP31手動:COSCUP 2019個人贊助
2019/8/27SOikeNT$2,500COSCUP2019_SP32手動:COSCUP 2019個人贊助
2019/8/27方O義NT$2,500COSCUP2019_SP33手動:COSCUP 2019個人贊助
2019/8/27陳O璋NT$2,500COSCUP2019_SP34手動:COSCUP 2019個人贊助
2019/8/27洪O偉NT$2,500COSCUP2019_SP35手動:COSCUP 2019個人贊助
2019/8/27大O尚弘NT$2,500COSCUP2019_SP36手動:COSCUP 2019個人贊助
2019/8/27林O彥NT$2,500COSCUP2019_SP37手動:COSCUP 2019個人贊助
2019/8/27Kang-min WangNT$2,500COSCUP2019_SP38手動:COSCUP 2019個人贊助
2019/8/27高O格NT$2,500COSCUP2019_SP39手動:COSCUP 2019個人贊助
2019/8/27陳O維NT$2,500COSCUP2019_SP40手動:COSCUP 2019個人贊助
2019/8/27KoneYuNT$2,500COSCUP2019_SP41手動:COSCUP 2019個人贊助
2019/8/27uktarNT$2,500COSCUP2019_SP42手動:COSCUP 2019個人贊助
2019/8/27余O緯NT$2,500COSCUP2019_SP43手動:COSCUP 2019個人贊助
2019/8/27黃O沂NT$2,500COSCUP2019_SP44手動:COSCUP 2019個人贊助
2019/8/27林O道NT$2,500COSCUP2019_SP45手動:COSCUP 2019個人贊助
2019/8/27Kent HuangNT$2,500COSCUP2019_SP46手動:COSCUP 2019個人贊助
2019/8/27楊O如NT$2,500COSCUP2019_SP47手動:COSCUP 2019個人贊助
2019/8/27舒O維NT$2,500COSCUP2019_SP48手動:COSCUP 2019個人贊助
2019/8/27盧O謙NT$2,500COSCUP2019_SP49手動:COSCUP 2019個人贊助
2019/8/27歐O文NT$2,500COSCUP2019_SP50手動:COSCUP 2019個人贊助
2019/8/27Tony YipNT$5,000COSCUP2019_SP51手動:COSCUP 2019個人贊助
2019/8/27Ida WangNT$2,500COSCUP2019_SP52手動:COSCUP 2019個人贊助
2019/8/27楊O安NT$2,500COSCUP2019_SP53手動:COSCUP 2019個人贊助
2019/8/27羅O欣NT$2,500COSCUP2019_SP54手動:COSCUP 2019個人贊助
2019/8/27游ONT$2,500COSCUP2019_SP55手動:COSCUP 2019個人贊助
2019/8/27CHAN POK NGAINT$2,500COSCUP2019_SP56手動:COSCUP 2019個人贊助
2019/8/27韓O明NT$2,500COSCUP2019_SP57手動:COSCUP 2019個人贊助
2019/8/27陳O光NT$500COSCUP2019_SP58手動:COSCUP 2019個人贊助
2019/8/27DaeHyun SungNT$500COSCUP2019_SP59手動:COSCUP 2019個人贊助
2019/8/27楊O勝NT$500COSCUP2019_SP60手動:COSCUP 2019個人贊助
2019/8/27Ted ChienNT$500COSCUP2019_SP61手動:COSCUP 2019個人贊助
2019/8/27李O緯NT$500COSCUP2019_SP62手動:COSCUP 2019個人贊助
2019/8/27呂O林NT$500COSCUP2019_SP63手動:COSCUP 2019個人贊助
2019/8/27KAZUHIKO INABANT$500COSCUP2019_SP64手動:COSCUP 2019個人贊助
2019/8/27洪O傑NT$500COSCUP2019_SP65手動:COSCUP 2019個人贊助
2019/8/27Max LiuNT$500COSCUP2019_SP66手動:COSCUP 2019個人贊助
2019/8/27李O昌NT$500COSCUP2019_SP67手動:COSCUP 2019個人贊助
2019/8/27蘇O銓NT$500COSCUP2019_SP68手動:COSCUP 2019個人贊助
2019/8/27藍O婷NT$500COSCUP2019_SP69手動:COSCUP 2019個人贊助
2019/8/27賴O翔NT$500COSCUP2019_SP70手動:COSCUP 2019個人贊助
2019/8/27蔡O欽NT$500COSCUP2019_SP71手動:COSCUP 2019個人贊助
2019/8/27Claire WongNT$500COSCUP2019_SP72手動:COSCUP 2019個人贊助
2019/8/27Taihsiang HoNT$500COSCUP2019_SP73手動:COSCUP 2019個人贊助
2019/8/27murphytsaiNT$500COSCUP2019_SP74手動:COSCUP 2019個人贊助
2019/8/27盧O甫NT$500COSCUP2019_SP75手動:COSCUP 2019個人贊助
2019/8/27陳O霖NT$500COSCUP2019_SP76手動:COSCUP 2019個人贊助
2019/8/27Tsang Yin LunNT$500COSCUP2019_SP77手動:COSCUP 2019個人贊助
2019/8/27江O霖NT$500COSCUP2019_SP78手動:COSCUP 2019個人贊助
2019/8/27李O瑾NT$500COSCUP2019_SP79手動:COSCUP 2019個人贊助
2019/8/27練O明NT$500COSCUP2019_SP80手動:COSCUP 2019個人贊助
2019/8/27林O晟NT$500COSCUP2019_SP81手動:COSCUP 2019個人贊助
2019/8/27朱O禮NT$500COSCUP2019_SP82手動:COSCUP 2019個人贊助
2019/8/27程O全 Derek, RENQUAN CHENGNT$500COSCUP2019_SP83手動:COSCUP 2019個人贊助
2019/8/27趙ONT$500COSCUP2019_SP84手動:COSCUP 2019個人贊助
2019/8/27ko chung kinNT$500COSCUP2019_SP85手動:COSCUP 2019個人贊助
2019/8/27林O晟NT$500COSCUP2019_SP86手動:COSCUP 2019個人贊助
2019/8/27江O揚NT$500COSCUP2019_SP87手動:COSCUP 2019個人贊助
2019/8/27Wen Chun LinNT$500COSCUP2019_SP88手動:COSCUP 2019個人贊助
2019/8/27林O樺NT$500COSCUP2019_SP89手動:COSCUP 2019個人贊助
2019/8/27魏O蔚NT$500COSCUP2019_SP90手動:COSCUP 2019個人贊助
2019/8/27許O翔NT$500COSCUP2019_SP91手動:COSCUP 2019個人贊助
2019/8/27Richard LinNT$500COSCUP2019_SP92手動:COSCUP 2019個人贊助
2019/8/27antNT$500COSCUP2019_SP93手動:COSCUP 2019個人贊助
2019/8/27沈O澤NT$500COSCUP2019_SP94手動:COSCUP 2019個人贊助
2019/8/27褚O維NT$500COSCUP2019_SP95手動:COSCUP 2019個人贊助
2019/8/27薛O升NT$500COSCUP2019_SP96手動:COSCUP 2019個人贊助
2019/8/27張O文NT$500COSCUP2019_SP97手動:COSCUP 2019個人贊助
2019/8/27王ONT$500COSCUP2019_SP98手動:COSCUP 2019個人贊助
2019/8/27VanceNT$500COSCUP2019_SP99手動:COSCUP 2019個人贊助
2019/8/27王O凱NT$500COSCUP2019_SP100手動:COSCUP 2019個人贊助
2019/8/27Yun HisangNT$500COSCUP2019_SP101手動:COSCUP 2019個人贊助
2019/8/27JokerCatzNT$500COSCUP2019_SP102手動:COSCUP 2019個人贊助
2019/8/27鄭O廷NT$500COSCUP2019_SP103手動:COSCUP 2019個人贊助
2019/8/27陳O紹NT$500COSCUP2019_SP104手動:COSCUP 2019個人贊助
2019/8/27林O德NT$500COSCUP2019_SP105手動:COSCUP 2019個人贊助
2019/8/27温O康NT$500COSCUP2019_SP106手動:COSCUP 2019個人贊助
2019/8/27邱O旺NT$500COSCUP2019_SP107手動:COSCUP 2019個人贊助
2019/8/27朱O翰NT$500COSCUP2019_SP108手動:COSCUP 2019個人贊助
2019/8/27許O麟NT$500COSCUP2019_SP109手動:COSCUP 2019個人贊助
2019/8/27LUIS WANGNT$500COSCUP2019_SP110手動:COSCUP 2019個人贊助
2019/8/27曾O郁NT$500COSCUP2019_SP111手動:COSCUP 2019個人贊助
2019/8/27AlenChenNT$500COSCUP2019_SP112手動:COSCUP 2019個人贊助
2019/8/27陳O翰NT$500COSCUP2019_SP113手動:COSCUP 2019個人贊助
2019/8/27刀ONT$500COSCUP2019_SP114手動:COSCUP 2019個人贊助
2019/8/27黃O峻NT$500COSCUP2019_SP115手動:COSCUP 2019個人贊助
2019/8/27林O勳NT$500COSCUP2019_SP116手動:COSCUP 2019個人贊助
2019/8/27蔡O泰NT$500COSCUP2019_SP117手動:COSCUP 2019個人贊助
2019/8/27蘇O傑NT$500COSCUP2019_SP118手動:COSCUP 2019個人贊助
2019/8/27薛O恩NT$500COSCUP2019_SP119手動:COSCUP 2019個人贊助
2019/8/27黃O俊NT$500COSCUP2019_SP120手動:COSCUP 2019個人贊助
2019/8/27陳O宏NT$500COSCUP2019_SP121手動:COSCUP 2019個人贊助
2019/8/27許O緯NT$500COSCUP2019_SP122手動:COSCUP 2019個人贊助
2019/8/27劉O林NT$500COSCUP2019_SP123手動:COSCUP 2019個人贊助
2019/8/27李O芫NT$500COSCUP2019_SP124手動:COSCUP 2019個人贊助
2019/8/27謝O強NT$500COSCUP2019_SP125手動:COSCUP 2019個人贊助
2019/8/27黃O燁NT$500COSCUP2019_SP126手動:COSCUP 2019個人贊助
2019/8/27ddioNT$500COSCUP2019_SP127手動:COSCUP 2019個人贊助
2019/8/27李O文NT$500COSCUP2019_SP128手動:COSCUP 2019個人贊助
2019/8/27蔡O亘NT$500COSCUP2019_SP129手動:COSCUP 2019個人贊助
2019/8/27林O伶NT$500COSCUP2019_SP130手動:COSCUP 2019個人贊助
2019/8/27李O宏NT$500COSCUP2019_SP131手動:COSCUP 2019個人贊助
2019/8/27宋O毅NT$500COSCUP2019_SP132手動:COSCUP 2019個人贊助
2019/8/27ugNT$500COSCUP2019_SP133手動:COSCUP 2019個人贊助
2019/8/27陳O君NT$500COSCUP2019_SP134手動:COSCUP 2019個人贊助
2019/8/27Dars500COSCUP2019_SP135手動:COSCUP 2019個人贊助
2019/8/27劉O永500COSCUP2019_SP136手動:COSCUP 2019個人贊助
2019/8/27林O鋒500COSCUP2019_SP137手動:COSCUP 2019個人贊助
2019/8/27鄭O恩500COSCUP2019_SP138手動:COSCUP 2019個人贊助
2019/8/27Dean Lin500COSCUP2019_SP139手動:COSCUP 2019個人贊助
2019/8/27高O修500COSCUP2019_SP140手動:COSCUP 2019個人贊助
2019/8/27李O毓500COSCUP2019_SP141手動:COSCUP 2019個人贊助
2019/8/27韓O憲500COSCUP2019_SP142手動:COSCUP 2019個人贊助
2019/8/27蘇O翔500COSCUP2019_SP143手動:COSCUP 2019個人贊助
2019/8/27陳O睿500COSCUP2019_SP144手動:COSCUP 2019個人贊助
2019/8/27Roland500COSCUP2019_SP145手動:COSCUP 2019個人贊助
2019/8/27陳O群500COSCUP2019_SP146手動:COSCUP 2019個人贊助
2019/8/27周O倫500COSCUP2019_SP147手動:COSCUP 2019個人贊助
2019/8/27詹O勳500COSCUP2019_SP148手動:COSCUP 2019個人贊助
2019/8/27EIA500COSCUP2019_SP149手動:COSCUP 2019個人贊助
2019/8/27林O琪500COSCUP2019_SP150手動:COSCUP 2019個人贊助
2019/8/27劉O呈500COSCUP2019_SP151手動:COSCUP 2019個人贊助
2019/8/27劉O庚500COSCUP2019_SP152手動:COSCUP 2019個人贊助
2019/8/27林O昱500COSCUP2019_SP153手動:COSCUP 2019個人贊助
2019/8/27黃O霖500COSCUP2019_SP154手動:COSCUP 2019個人贊助
2019/8/27蔡O廷500COSCUP2019_SP155手動:COSCUP 2019個人贊助
2019/8/27吳O毅500COSCUP2019_SP156手動:COSCUP 2019個人贊助
2019/8/27盧O中500COSCUP2019_SP157手動:COSCUP 2019個人贊助
2019/8/27李O輝500COSCUP2019_SP158手動:COSCUP 2019個人贊助
2019/8/27陳O均500COSCUP2019_SP159手動:COSCUP 2019個人贊助
2019/8/27張O瑜500COSCUP2019_SP160手動:COSCUP 2019個人贊助
2019/8/27康O峰500COSCUP2019_SP161手動:COSCUP 2019個人贊助
2019/8/27林O穎500COSCUP2019_SP162手動:COSCUP 2019個人贊助
2019/8/27洪O軒500COSCUP2019_SP163手動:COSCUP 2019個人贊助
2019/8/27黃O豪500COSCUP2019_SP164手動:COSCUP 2019個人贊助
2019/8/27王O勳500COSCUP2019_SP165手動:COSCUP 2019個人贊助
2019/8/27汪O敏500COSCUP2019_SP166手動:COSCUP 2019個人贊助
2019/8/27蔡O安500COSCUP2019_SP167手動:COSCUP 2019個人贊助
2019/8/27翁O一500COSCUP2019_SP168手動:COSCUP 2019個人贊助
2019/8/27鄭O翊500COSCUP2019_SP169手動:COSCUP 2019個人贊助
2019/8/27周O嘉500COSCUP2019_SP170手動:COSCUP 2019個人贊助
2019/8/27柯O函500COSCUP2019_SP171手動:COSCUP 2019個人贊助
2019/8/27kerkerj500COSCUP2019_SP172手動:COSCUP 2019個人贊助
2019/8/27Dean Lin500COSCUP2019_SP173手動:COSCUP 2019個人贊助
2019/8/27劉O呈500COSCUP2019_SP174手動:COSCUP 2019個人贊助
2019/8/27陳O翰500COSCUP2019_SP175手動:COSCUP 2019個人贊助
2019/8/27Hank Tsai500COSCUP2019_SP176手動:COSCUP 2019個人贊助
2019/8/27賴O旭500COSCUP2019_SP177手動:COSCUP 2019個人贊助
2019/8/27yukiko500COSCUP2019_SP178手動:COSCUP 2019個人贊助
2019/8/27呂O誠500COSCUP2019_SP179手動:COSCUP 2019個人贊助
2019/8/27Cynthia Xin500COSCUP2019_SP180手動:COSCUP 2019個人贊助
2019/8/27方O學500COSCUP2019_SP181手動:COSCUP 2019個人贊助
2019/8/27Hiroki Sato500COSCUP2019_SP182手動:COSCUP 2019個人贊助
2019/8/27Ken C500COSCUP2019_SP183手動:COSCUP 2019個人贊助
2019/8/27俞O文500COSCUP2019_SP184手動:COSCUP 2019個人贊助
2019/8/27吳O寬500COSCUP2019_SP185手動:COSCUP 2019個人贊助
2019/8/27潘O允500COSCUP2019_SP186手動:COSCUP 2019個人贊助
2019/8/27廖O喻500COSCUP2019_SP187手動:COSCUP 2019個人贊助
2019/8/27蔡O達500COSCUP2019_SP188手動:COSCUP 2019個人贊助
2019/8/27鍾O家500COSCUP2019_SP189手動:COSCUP 2019個人贊助
2019/8/27何O諭500COSCUP2019_SP190手動:COSCUP 2019個人贊助
2019/8/27洪O豪500COSCUP2019_SP191手動:COSCUP 2019個人贊助
2019/8/27吳O翰500COSCUP2019_SP192手動:COSCUP 2019個人贊助
2019/8/27陳O500COSCUP2019_SP193手動:COSCUP 2019個人贊助
2019/8/27李O榮500COSCUP2019_SP194手動:COSCUP 2019個人贊助
2019/8/27劉O毅500COSCUP2019_SP195手動:COSCUP 2019個人贊助
2019/8/27林O藍500COSCUP2019_SP196手動:COSCUP 2019個人贊助
2019/8/27Pau Wah500COSCUP2019_SP197手動:COSCUP 2019個人贊助
2019/8/27Ip Yu sze500COSCUP2019_SP198手動:COSCUP 2019個人贊助
2019/8/27Cho Sung Jae300COSCUP2019_SP199手動:COSCUP 2019個人贊助
2019/8/27Iwan Setiawan300COSCUP2019_SP200手動:COSCUP 2019個人贊助
2019/8/27 上午 1:42:33曾O聞NT$300A20190827-000001線上繳款: OCF行政基金 捐款專頁
2019/8/27 上午 2:29:25MarconiNT$300A20190827-000002線上繳款: OCF行政基金 捐款專頁
2019/8/28 上午 12:50:31蔡O安NT$300A20190828-000001jothon(線上繳款: g0v 大松認養人)
2019/8/28 上午 7:02:01蔡O翰NT$300A20190828-000002線上繳款: OCF行政基金 捐款專頁
2019/8/28 上午 7:05:02王O民NT$300A20190828-000003線上繳款: OCF行政基金 捐款專頁
2019/8/28 上午 7:05:05許峻偉NT$300A20190828-000004線上繳款: OCF行政基金 捐款專頁
2019/8/28 上午 7:22:31江翰源NT$300A20190828-000005jothon(線上繳款: g0v 大松認養人)
2019/8/28 上午 7:27:50鄧O波NT$300A20190828-000006線上繳款: OCF行政基金 捐款專頁
2019/8/28 上午 7:38:34洪O吟NT$300A20190828-000007線上繳款: OCF行政基金 捐款專頁
2019/8/29 上午 1:40:22陳O倬NT$300A20190829-000001線上繳款: OCF行政基金 捐款專頁
2019/8/29 上午 1:42:55吳O逸NT$300A20190829-000002線上繳款: OCF行政基金 捐款專頁
2019/8/29 上午 2:19:21SZ LinNT$888A20190829-000003線上繳款: OCF行政基金 捐款專頁
2019/8/29 上午 2:29:18Reiny SongNT$500A20190829-000004線上繳款: OCF行政基金 捐款專頁
2019/8/29 上午 2:48:34李O華NT$300A20190829-000005線上繳款: OCF行政基金 捐款專頁
2019/8/29 上午 2:48:56洪O展NT$300A20190829-000006線上繳款: OCF行政基金 捐款專頁
2019/8/29 上午 2:57:31李O緯NT$300A20190829-000007線上繳款: OCF行政基金 捐款專頁
2019/8/29 上午 2:59:08李O龍NT$300A20190829-000008線上繳款: OCF行政基金 捐款專頁
2019/8/29 上午 2:59:43LIN KANG SZENT$300A20190829-000009線上繳款: OCF行政基金 捐款專頁
2019/8/29 上午 3:03:17ihowerNT$301A20190829-000010線上繳款: OCF行政基金 捐款專頁
2019/8/29 上午 9:04:23學O智能科技有限公司NT$5,000A20190829-000011線上繳款: 系統軟體走向國際 2017 捐款專頁
2019/8/30 上午 1:42:23陳O聖NT$300A20190830-000001線上繳款: OCF行政基金 捐款專頁
2019/8/30 上午 1:42:28呂O林NT$1,000A20190830-000002jothon(線上繳款: g0v 大松認養人)
2019/8/30 上午 1:42:47林O玉NT$300A20190830-000003線上繳款: OCF行政基金 捐款專頁
2019/8/30 上午 2:09:04林O彥NT$1,000A20190830-000004線上繳款: OCF行政基金 捐款專頁
2019/8/30 上午 2:22:27陳O志NT$300A20190830-000005線上繳款: OCF行政基金 捐款專頁
2019/8/30 上午 2:23:25陳O瑩NT$300A20190830-000006線上繳款: OCF行政基金 捐款專頁
2019/8/30 上午 2:32:52林O俊NT$300A20190830-000007線上繳款: OCF行政基金 捐款專頁
2019/8/31 上午 1:43:04陳三一NT$300A20190831-000001線上繳款: OCF行政基金 捐款專頁
2019/8/31 上午 1:44:23曾ONT$300A20190831-000002線上繳款: OCF行政基金 捐款專頁
2019/8/31 上午 1:58:03黃O瑜NT$300A20190831-000003線上繳款: OCF行政基金 捐款專頁
2019/8/31 上午 2:05:21林O錕NT$300A20190831-000004線上繳款: OCF行政基金 捐款專頁
2019/8/31 下午 8:05:13涂O怡NT$300A20190831-000005線上繳款: OCF行政基金 捐款專頁
2019/8/31 下午 9:00:00林O宏NT$600A20190831-000006jothon(線上繳款: g0v 大松認養人)